sat.trackr.live / text

‹ back to catalog

STARLINK-35629

NORAD 66127 · 2025-237P

PAYLOAD ACTIVE UNKNOWN

§ Identity

Operator
Country
US
Launch date
2025-10-22
Launch site
AFWTR
Launch vehicle
Mass (kg)
RCS (m²)

Purposes: comms

External: N2YO · Heavens-Above · Gunter

§ Orbital elements

Epoch: 2026-09-20T06:59:23.596512Z

Period
93.85 min
Inclination
53.1607°
Eccentricity
0.0000808
Mean motion
15.34399469 rev/d
Perigee alt
462.2 km
Apogee alt
463.3 km
Semi-major
6,840.8 km
B*
-8.4476e-5
RAAN
214.3862°
Arg perigee
69.7121°
Mean anomaly
290.3968°
Rev number
5,242

§ Raw data

STARLINK-356291 66127U 25237P   26263.29124533 -.00003229  00000+0 -84476-4 0  99992 66127  53.1607 214.3862 0000808  69.7121 290.3968 15.34399469 52427

JSON: /api/v1/satellites/66127 · /tle

For live sub-satellite position, see the globe view (requires WebGL).

§ Visibility from observer

Set your observer location to see the next 7 days of passes ≥ 10°. The values pass through the URL so the page stays shareable.

No JS? Fill the form by hand. The geolocation button needs JavaScript.